Printer-friendly version

IAU Minor Planet Center

Minor Planet Center

MPEC 2005-V26 : 2004 OT11

The following Minor Planet Electronic Circular may be linked-to from your own Web pages, but must not otherwise be redistributed electronically.


Read MPEC 2005-V25 Read MPEC 2005-V27


M.P.E.C. 2005-V26                                Issued 2005 Nov. 3, 03:31 UT

     The Minor Planet Electronic Circulars contain information on unusual
         minor planets and routine data on comets.  They are published
   on behalf of Commission 20 of the International Astronomical Union by the
          Minor Planet Center, Smithsonian Astrophysical Observatory,
                          Cambridge, MA 02138, U.S.A.

                  Supported in part by the Brinson Foundation
                  Supported in part by the TABASGO Foundation
             Prepared using the Tamkin Foundation Computer Network

                              MPC@CFA.HARVARD.EDU
          URL http://cfa-www.harvard.edu/iau/mpc.html  ISSN 1523-6714

                                   2004 OT11

                           Revision to MPEC 2004-O42

Additional Observations:
     K04O11T 3C2005 10 30.60300 06 12 54.59 +38 45 12.6          23.2 g EV026568
     K04O11T 3C2005 10 30.60499 06 12 54.52 +38 45 12.9          23.4 g EV026568
     K04O11T 3C2005 10 30.60697 06 12 54.46 +38 45 13.2          23.2 g EV026568
     K04O11T 3C2005 10 31.57786 06 12 25.31 +38 47 20.5          23.0 g EV026568
     K04O11T 3C2005 10 31.57983 06 12 25.25 +38 47 20.7          23.0 g EV026568
     K04O11T 3C2005 10 31.58180 06 12 25.17 +38 47 21.0          23.0 g EV026568

Observer details:
568 Mauna Kea.  Measurer C. Veillet.  3.6-m Canada-France-Hawaii Telescope.

Orbital elements:
2004 OT11                                                            PHA 0.000A
Epoch 2005 Aug. 18.0 TT = JDT 2453600.5                 MPC
M 142.36110              (2000.0)            P               Q
n   0.31194629     Peri.  326.11767     -0.11921397     +0.94403316
a   2.1531924      Node   295.29752     -0.81873121     -0.26870259
e   0.5638537      Incl.   19.88763     -0.56166470     +0.19131209
P   3.16           H   17.3           G   0.15           U   2
Residuals in seconds of arc
040727 704  0.4-  0.1-    040801 649  0.4+  0.1+    040825 704  0.0   0.0
040727 704  0.4-  0.6-    040801 649  0.2-  0.4-    040825 704  1.3+  0.4+
040727 704  0.1+  0.0     040801 649  0.7-  0.2+    040825 704  0.4+  0.6+
040727 704  0.7-  0.7+    040801 H36  1.2+  0.5-    040825 704  0.0   0.5+
040727 621  0.3-  0.1+    040801 H36  0.5+  0.4-    040827 704  0.5-  0.6-
040728 621  0.0   0.4+    040801 H36  0.3-  1.6+    040827 704  1.0-  0.3-
040728 A13  1.1-  0.7-    040801 H36  0.6+  0.3+    040827 704  0.0   0.6+
040728 A13  0.3-  0.5-    040801 H36  0.3+  1.0-    040827 704  0.6-  1.0-
040728 A13  0.0   0.3-    040801 H36  0.1-  0.7+    040827 185  0.4-  0.3-
040728 A13  0.4-  0.2-    040801 H36  0.4+  0.9-    040827 185  0.9-  0.6-
040728 621  0.3-  0.1+    040801 G70  0.1-  0.3-    040827 185  0.6-  0.4-
040728 A13  0.1-  0.2-    040801 G70  0.0   0.2-    040828 151  0.1+  1.2+
040728 A13  0.2-  0.2-    040801 G70  0.2+  0.1+    040828 151  0.8+  1.3+
040728 A13  0.0   0.1+    040801 A13  0.6-  0.1-    040828 151  1.1+  1.4+
040728 A13  0.2-  0.1+    040801 A13  0.5-  0.1-    040828 151  0.3+  1.0+
040728 A13  0.2-  0.1+    040802 A13  0.5-  0.3-    040904 151  0.5-  0.5+
040728 A13  0.1-  0.1+    040802 A13  0.3+  0.5+    040904 151  0.2-  0.1-
040728 198  0.1-  0.3-    040802 A13  0.2-  0.2+    040905 704  0.9+  0.3+
040728 198  0.2-  0.2-    040802 649  0.5-  0.4-    040905 704  0.4-  0.4-
040728 198  0.3-  0.0     040802 649  0.3-  0.3+    040905 704  0.2-  0.2-
040728 198  0.4-  0.1-    040802 649  0.6+  0.6-    040905 704  0.3+  0.1+
040728 J95  0.2-  0.5-    040803 649  0.3+  0.4-    040909 240  0.0   0.3-
040728 J95  0.2-  0.0     040803 649  0.6+  0.1+    040909 240  0.1-  0.2-
040728 J95  0.2+  0.2-    040803 649  0.1+  0.8-    040909 240  0.3-  0.1-
040728 649  0.1-  0.1+    040803 649  0.0   0.6-    040909 240  0.3-  0.2-
040728 649  0.7+  0.1+    040806 649  0.0   0.1+    040909 240  0.2-  0.2-
040728 649  0.7+  0.6+    040806 649  0.7+  0.0     040916 704  0.7-  0.3+
040728 649  0.2-  0.4+    040806 649  0.1+  0.0     040916 704  0.3+  0.5-
040728 H06  0.5+  0.4-    040806 649  0.5+  0.3+    040916 704  0.2-  0.4-
040728 H06  0.2+  0.0     040807 715  0.1-  0.2-    040916 704  0.1-  0.0
040728 H06  0.1-  0.2-    040807 715  0.2-  0.0     040916 704  0.3+  1.0-
040728 704  0.9+  0.5-    040807 715  0.1-  0.1-    040916 151  0.2+  0.0
040728 704  0.6+  0.0     040807 715  0.1-  0.2-    040916 151  0.1+  0.8-
040728 704  0.3+  0.2-    040808 J95  0.1-  0.2+    040916 151  0.2-  0.1-
040728 704  0.1+  0.2+    040808 J95  0.3+  0.0     040917 A48  0.8-  0.4-
040728 H06  0.1-  0.1-    040808 J95  0.0   0.3-    040917 A48  1.2-  0.4-
040728 G70  0.0   0.9+    040811 G72  0.4+  0.9+    040918 A30  1.1-  1.7-
040728 H06  0.1-  0.0     040811 G72  0.4-  0.1+    040918 A30  0.9-  1.1-
040728 G70  0.0   0.0     040811 G72  0.4-  0.3+    040918 A48  0.0   0.2+
040728 H06  0.0   0.2+    040811 G72  0.0   0.7+    040918 A48  0.0   0.4+
040728 G70  0.5-  0.8+    040811 G72  0.5+  0.2-    040921 704  0.0   0.3+
040728 198  0.9+  0.2-    040812 176  0.0   0.0     040921 704  0.2+  0.3+
040728 198  0.4+  0.0     040812 176  0.0   0.1-    040921 704  0.3+  0.1-
040729 198  0.5-  0.9+    040812 176  0.0   0.2-    040921 704  0.8+  0.7+
040729 198  0.5-  0.8+    040812 176  0.0   0.2-    040921 704  0.7+  0.2+
040729 G70  0.0   0.3+    040812 176  0.1+  0.4-    041001 941  0.1-  0.0
040729 G70  0.3-  0.2-    040814 587  0.5+  1.5+    041001 941  0.3+  0.2+
040729 G70  0.0   0.5-    040814 587  0.0   1.4+    041001 941  0.6+  0.2+
040729 151  0.7+  0.7+    040815 198  0.5+  0.0     041003 198  0.4+  0.2+
040729 151  0.5-  0.3+    040815 198  0.8+  0.4-    041003 198  0.3+  0.1+
040729 151  0.8-  0.1-    040816 198  0.7+  0.6-    041003 198  0.2+  0.1+
040729 151  0.6-  0.5+    040816 198  0.5+  0.3-    041003 198  0.1-  0.0
040729 151  0.8-  0.6+    040819 170  0.0   0.2+    041008 704  0.3+  1.7+
040729 A13  0.3-  0.8+    040819 170  0.2+  0.1+    041008 704  0.1-  0.8+
040729 151  0.1-  0.1+    040819 170  0.1+  0.2+    041008 704  1.0+  0.7+
040729 A13  0.1-  0.1-    040819 170  0.2+  0.0     041008 704  0.7+  1.1+
040729 A13  0.3-  0.4-    040820 A41  0.1-  0.1-    041008 704  1.2+  0.9+
040730 198  0.4+  0.1-    040820 A41  0.0   0.2+    041023 170  0.1-  0.2-
040730 198  0.2+  0.1-    040820 J95  0.2+  0.4+    041023 170  0.2+  0.4-
040730 198  0.1+  0.0     040820 J95  0.0   0.1-    041023 170  0.2+  0.6-
040730 198  0.0   0.0     040820 J95  0.1-  0.4-    041110 696  0.4-  0.0
040730 198  0.0   0.0     040823 A41  0.2-  0.2-    041110 696  0.1-  0.5+
040730 G70  0.1-  0.1+    040823 198  0.0   0.3+    041211 291  1.0-  0.5+
040730 G70  0.2-  0.1-    040823 198  0.4+  0.4-    041211 291  0.9+  0.1-
040730 G70  0.1+  0.3+    040823 198  0.6+  0.2-    041211 291  0.8-  0.0
040731 649  0.1+  0.1+    040823 A41  0.6-  0.8+    050115 J50  0.0   0.3-
040731 649  0.2+  0.4+    040823 A41  0.3-  0.2-    050115 J50  0.4-  0.2-
040731 649  0.1+  0.2+    040823 J50  0.0   0.0     050115 J50  0.7+  0.1+
040801 941  0.1-  0.5-    040823 J50  0.0   0.0     050115 J50  0.9+  0.4+
040801 941  0.3+  0.4-    040823 J50  0.0   0.0     050115 J50  0.6-  0.5+
040801 941  0.6+  0.2-    040823 J50  0.0   0.0     051030 568  0.1+  0.0
040801 941  0.7+  0.2-    040823 G72  0.4-  0.6-    051030 568  0.0   0.0
040801 941  1.0+  0.2-    040823 G72  0.5-  0.7+    051030 568  0.0   0.1+
040801 941  1.1+  0.5-    040823 G72  0.5-  0.6-    051031 568  0.1+  0.1+
040801 J95  0.2-  0.7+    040823 G72  0.3-  0.1-    051031 568  0.2+  0.1+
040801 J95  0.2-  0.4+    040823 G72  0.3+  0.2-    051031 568  0.0   0.1+
040801 649  0.1-  0.2+    040825 704  0.1-  0.3+

Ephemeris:
2004 OT11                a,e,i = 2.15, 0.56, 20                  q = 0.9391
Date    TT    R. A. (2000) Decl.     Delta      r     Elong.  Phase     V
2005 10 27    06 14.46   +38 37.0    2.746    3.348   119.5    15.0    22.9
2005 11 06    06 09.16   +38 58.3    2.632    3.355   129.9    13.1    22.8
2005 11 16    06 00.83   +39 13.2    2.537    3.360   140.7    10.8    22.6
2005 11 26    05 49.79   +39 17.0    2.465    3.364   151.3     8.1    22.5
2005 12 06    05 36.77   +39 05.4    2.421    3.366   160.6     5.6    22.3
2005 12 16    05 22.91   +38 36.1    2.409    3.367   164.5     4.5    22.2
2005 12 26    05 09.49   +37 49.9    2.428    3.367   159.4     5.9    22.3

Timothy B. Spahr             (C) Copyright 2005 MPC           M.P.E.C. 2005-V26

Read MPEC 2005-V25 Read MPEC 2005-V27


Our Web policy. Index to the CBAT/MPC/ICQ pages.


Valid HTML 4.01!